Overview Statistics Trail Chart Weather Telemetry Raw packets
 

This is the latest recevied weather packets stored in our database for station/object VE8SKI. If no packets are shown the sender has not sent any weather packets the latest 10 day(s).

<< 10 11 12 13 14 15 16 >>
Time Temp. Humidity Pressure Rain* Wind** Luminosity Snow
1778026714 7.22° C 48% 1018.5 hPa 0 mm 2.68 m/s, 201° - -
1778026415 7.22° C 49% 1018.6 hPa 0 mm 2.68 m/s, 257° - -
1778026115 6.67° C 49% 1018.7 hPa 0 mm 2.24 m/s, 201° - -
1778025816 7.22° C 49% 1018.8 hPa 0 mm 2.24 m/s, 242° - -
1778025516 7.22° C 49% 1018.8 hPa 0 mm 2.68 m/s, 211° - -
1778025214 6.67° C 49% 1018.9 hPa 0 mm 3.58 m/s, 141° - -
1778024915 6.67° C 50% 1018.9 hPa 0 mm 3.58 m/s, 228° - -
1778024615 6.67° C 51% 1019.1 hPa 0 mm 1.79 m/s, 281° - -
1778024315 6.67° C 50% 1019.1 hPa 0 mm 3.58 m/s, 149° - -
1778024016 6.67° C 51% 1019.1 hPa 0 mm 3.13 m/s, 167° - -
1778023716 6.67° C 49% 1019.2 hPa 0 mm 3.58 m/s, 232° - -
1778023414 7.22° C 50% 1019.2 hPa 0 mm 2.24 m/s, 183° - -
1778023115 6.67° C 50% 1019.3 hPa 0 mm 3.13 m/s, 205° - -
1778022815 6.67° C 50% 1019.4 hPa 0 mm 2.68 m/s, 194° - -
1778022516 6.67° C 52% 1019.4 hPa 0 mm 2.24 m/s, 285° - -
1778022216 6.11° C 51% 1019.6 hPa 0 mm 2.68 m/s, 267° - -
1778021916 6.11° C 52% 1019.7 hPa 0 mm 3.13 m/s, 7° - -
1778021614 6.11° C 53% 1019.7 hPa 0 mm 3.13 m/s, 204° - -
1778021315 6.11° C 53% 1019.8 hPa 0 mm 4.02 m/s, 211° - -
1778021015 6.11° C 54% 1019.8 hPa 0 mm 3.13 m/s, 212° - -
1778020716 6.11° C 54% 1019.9 hPa 0 mm 2.68 m/s, 245° - -
1778020416 6.11° C 55% 1020 hPa 0 mm 2.68 m/s, 228° - -
1778020117 5.56° C 55% 1020.1 hPa 0 mm 4.02 m/s, 236° - -
1778019815 5.56° C 54% 1020.2 hPa 0 mm 3.13 m/s, 172° - -
1778019515 5.56° C 55% 1020.2 hPa 0 mm 3.13 m/s, 203° - -

* Rain latest hour (hover to see other rain measurements)
** Current wind speed in m/s (hover to see current wind gust speed)